Location: PSU-Greenbush Astrophysical Observatory
(37.5140°N, 94.9880°W)
Time: 22:30:01
(UTC-06:00)

Altair - Pass Details

Date: 31 January 2020
Orbit: 1502 x 1682 km, 47.2° (Epoch: 17 February)

Event Time Altitude Azimuth Distance (km) Brightness Sun altitude
Rises 09:14:33 0° 270° (W) 4,872 9.7 17.9°
Reaches altitude 10° 09:17:50 10° 276° (W) 3,904 9.2 18.4°
Maximum altitude 09:27:34 51° 351° (N) 2,034 8.1 19.8°
Drops below altitude 10° 09:37:25 10° 66° (ENE) 3,942 10.0 21.2°
Sets 09:40:45 0° 71° (ENE) 4,922 10.5 21.7°
